Airfield :
LOGIN :

Register | Disclaimer

   EN    FR    IT 

 










Legend :    VFR   Marginal VFR   IFR   Intensive IFR   Very Intensive IFR
Visi :
Ceiling :
>= 8 km
>= 3000ft
5 to 8 km
1000 to 3000 ft
1500m to 5 km
500 to 1000 ft
800 to 1500m
200 to 500 ft
< 800m
< 200 ft
Symbols :   Thunderstorms  Fog  Heavy snow  Heavy precipitations  Wind > 20 kt
SIGMETs :     Misc.  Thunderstorms  Icing  Turbulence  Mountain Waves  Volcanic Ashes







- Airport Elevation : 135 ft
- IATA code : EDI
- Download approach charts


EGPH - Edinburgh

CURRENT METAR :
  • 151250Z VRB01KT CAVOK 13/05 Q1015

EXPIRED METARs :
  • 151220Z VRB02KT CAVOK 12/06 Q1016
  • 151150Z VRB03KT CAVOK 11/07 Q1016
  • 151120Z VRB03KT CAVOK 11/06 Q1016
  • 151050Z VRB03KT CAVOK 10/06 Q1016
  • 151020Z VRB02KT CAVOK 08/07 Q1016

TAF TAF EGPH
Valid from the 15 at 12:00 until the 16 at 12:00 UTC


151058Z 1512/1612 VRB03KT CAVOK
PROB30
TEMPO 1605/1611 8000 BKN012
BECMG 1609/1612 22012KT
PROB30
TEMPO 1610/1612 22015G25KT
ATIS : +44 131 339 2823
No reported NOTAMs for that airfield.



MET'MAP, your aeronautical weather chart ! - Copyright ORBIFLY December 2007 - Disclaimer

ORBIFLY MET'MAP TEAM :

Programming & Development : Alexandra Zaïnal
Concept & Development : Baudouin d'Aumeries
Co-Development & Prog : Marc-Olivier Méhu
Technical & hardware support : Manuel Goepfert

Contact : metmap@orbifly.com




SOURCES & CREDITS :

   NOAA